Погода в Ижевске

Хотите узнать прогноз погоды в Ижевске? Тогда Вам сюда: Погода в Ижевске

Поиск расширенной информации на нашем сайте:

Полезная информация:

Новости сайта



02.01.2020
Опубликован Долгосрочный прогноз погоды по городам России и ближнего зарубежья на январь 2020 года.
Карты: Прогноз на январь и февраль 2020 года, Сравнение прогнозируемой аномалии приземной температуры воздуха на январь 2020 года по разным моделям.




Погода в Ижевске - сегодня

Время (UTC), дата Ветер
(°,м/с) 
Видим.   Явления Облачность Т
(°С)
Тd
(°С)
f(%) Тe
(°С)
Pmin
(гПа)
dP
(гПа)
Po
(мм)
O2
(г/м3)
Тmin Tmax R s Состояние
почвы
06 04.06.20 110 (В) 6-7{08}  10 км    4/0 верхняя 
[Ci fib]
+17.8 +4.6 42 +18  1018.1  -0.9  749  283           
09 04.06.20 080 (В) 6-9{11}  10 км    6/0 средняя, верхняя 
[Ac cast|Ci ing]
+20.9 +4.2 33 +21  1017.5  -0.4  749  280           
12 04.06.20 090 (В) 5-8{11}  10 км    8/3 1000 м средняя 
[Sc|Ac trans]
+21.2 +5.3 35 +21  1016.5  -1  748  279           
15 04.06.20 110 (В) 4-6{09}  10 км    9/0 средняя 
[Ac trans]
+20.8 +9.4 48 +21  1016  -0.4  748  278    +22.5       
18 04.06.20 100 (В) 4-5{06}  10 км    10/3 1000 м средняя 
[Sc|Ac As]
+18.1 +9.8 58 +19  1016.3  0.1  748  281           
21 04.06.20 110 (В) 4-6{08}  10 км    10/0 средняя 
[Ac As]
+17.4 +9.2 59 +18  1016.8  0.4  748  282           
00 05.06.20 120 (ЮВ) 4-6{08}  10 км  слаб. дождь  10/6 1000 м средняя 
[Sc|Ac As]
+14.2 +12.7 91 +19  1017.8  0.8  749  284           
03 05.06.20 120 (ЮВ) 4-6{09}  10 км  {дождь}  9/8 1000 м средняя 
[Sc|Ac trans]
+14.4 +13.3 93 +20  1018  0.2  749  284  +14      влажная 
06 05.06.20 140 (ЮВ) 5-7{08}  10 км  слаб. дождь  10/8 600 м средняя 
[Sc|Ac As]
+15.1 +13.5 90 +21  1019.2  1.2  750  284           
09 05.06.20 150 (ЮВ) 4-5{09}  10 км  {дождь}  9/6 1000 м средняя 
[Sc|Ac trans]
+20.5 +12.8 61 +26  1019.3  0.5  750  279           
12 05.06.20 130 (ЮВ) 5-8{09}  10 км  {дождь}  10/4 1000 м средняя, верхняя 
[Sc|Ac trans|Ci fib]
+22.5 +13.4 56 +29  1019.2  750  277           
15 05.06.20 140 (ЮВ) 5-8{09}  10 км    10/0 средняя, верхняя 
[Ac trans|Ci fib]
+20.3 +12.3 60 +25  1019.3  750  279    +22.6     
18 05.06.20 130 (ЮВ) 4-5{08}  10 км    6/0 средняя 
[Ac trans]
+16.3 +10.7 69 +18  1020.1  0.5  751  283           
21 05.06.20 110 (В) 5-6{07}  10 км    6/0 средняя 
[Ac trans]
+15.2 +11.5 79 +18  1020  -0.2  751  284           
00 06.06.20 130 (ЮВ) 4-5{08}  10 км    6/0 средняя 
[Ac trans]
+14.9 +10.1 73 +16  1020  751  285           
03 06.06.20 130 (ЮВ) 5-6{07}  10 км    8/0 средняя, верхняя 
[Ac trans|Ci fib]
+15.9 +9.6 66 +17  1020.1  0.2  751  284  +14.6        сухая 
06 06.06.20 140 (ЮВ) 6-8{09}  10 км    6/0 верхняя 
[Ci fib]
+20.5 +8 44 +21  1018.9  -0.9  750  280           
09 06.06.20 160 (Ю) 6-9{10}  10 км    9/0 средняя, верхняя 
[Ac trans|Cc]
+21.9 +8 41 +22  1018.7  -0.1  750  278           
12 06.06.20 230 (ЮЗ) 3-6{10}  10 км    9/4 1000 м средняя, верхняя 
[Cu med, cong|Ac trans|Cc]
+19.9 +11 56 +23  1019  0.2  750  280           
15 06.06.20 260 (З) 3-5{09}  10 км    9/4 1000 м средняя, верхняя 
[Cu med, cong|Ac trans|Cc]
+18.1 +8.2 52 +19  1019.5  0.3  750  282    +23.1       
18 06.06.20 тихо () -2{05}  10 км    9/0 средняя 
[Ac trans]
+14.1 +10.9 81 +16  1019.2  -0.5  750  285           
21 06.06.20 тихо () -2{03}  10 км    9/0 средняя 
[Ac trans]
+12.9 +10.4 85 +15  1018.8  -0.5  750  287           
00 07.06.20 110 (В) 2-4{05}  10 км    8/0 средняя 
[Ac trans]
+11.5 +7.1 74 +12  1018.7  -0.2  749  289           
03 07.06.20 120 (ЮВ) 2-3{05}  10 км    6/0 средняя, верхняя 
[Ac trans|Cc]
+14.5 +10.5 77 +17  1018.4  -0.1  749  285  +10.2        сухая 
06 07.06.20 150 (ЮВ) 3-4{06}  10 км    9/4 1000 м средняя 
[Sc|Ac trans]
+17.9 +11.5 66 +21  1018.6  0.5  750  281           
Время (UTC), дата Ветер
(°,м/с) 
Видим.   Явления Облачность Т
(°С)
Тd
(°С)
f(%) Тe
(°С)
Pmin
(гПа)
dP
(гПа)
Po
(мм)
O2
(г/м3)
Тmin Tmax R s Состояние
почвы

Для получения пояснительной информации подведите курсор к названию столбца.

ПОГОДА в Ижевске - архив

Всё, что Вы хотите узнать о погоде в Ижевске - удобно и подробно!

Выберите нужную дату (начиная с 1 января 2019* года) и нажмите кнопку "Найти".
Будут отображены архивные сводки погоды по пункту Ижевск, начиная с указанной даты.


Отображать данные в формате CSV (для использования в таблицах Excel)


Внимание! Наш архив погоды предназначен исключительно для личного некоммерческого использования в познавательных целях. Если Вам необходимы официальные справки о состоянии погоды (для производственных, юридических, коммерческих и т.п. целей), обращайтесь в органы Росгидромета.

*Примечание: данная дата относится к архиву по метеостанциям СССР (Россия, СНГ, Балтия).
Архив по метеостанциям Зарубежной Европы и Азии (кроме Китая) хранится 10 дней, по другим регионам земного шара (Китай, Африка, Америка, Австралия, Океания) - 1 день.

Ижевск - район местоположения метеостанции


Название, широта, долгота, высота метеостанции:
Ижевск 56.8°ш. 53.4°д. 159 м над ур. моря [Российская Федерация]

Дополнительная информация

В oтличие oт бoльшинства пoгoдных сайтoв мы публикуем пoдрoбную метеoинфoрмацию в детальнoм прoфессиoнальнoм фoрмате.

Характеристики температуры и влажнoсти вoздуха измеряются на высoте 2 м в тени вдали oт зданий и деревьев.
Скoрoсть ветра измеряется на высoте 10 м (на урoвне рoста челoвека скoрoсть ветра ниже в 1.5-2 раза). Если метеoстанция нахoдится в гoрoде или в лесу, тo скoрoсть ветра занижена на 2-4 м/с пo сравнению с oткрытым местoм. Скoрoсть ветра над акватoриями крупных рек и oзёр, а также на вершинах хoлмoв на 2-5 м/с выше, чем в oбычных услoвиях.
Атмoсфернoе давление в разных тoчках местнoсти мoжет значительнo oтличаться oт давления на метеoстанции, в зависимoсти oт услoвий рельефа (при пoдъёме на 10 м давление пoнижается примернo на 1 мм рт.ст.).